Timeline UpdatesTrip UpdatesNews PostsPvt Posts♥♥Travel TipsAdmin PostsConv PostsFollowed PostsChat RequestsBlog PostsPNR Posts

Disclaimer
Search
 
 
Tue Oct 21, 2014 22:19:15 ISTHomeTrainsΣChainsAtlasPNRForumGalleryNewsFAQTripsMembersLoginFeedback
No Recent News for this Train
Other Trains in the News **new
Latest...
Detached at Erode Junction to run as separate train till Tirunelveli.
Fri Mar 25, 2011 (08:02PM)
⇐ Return Journey: Train# 16787

16688-Slip/Navyug Express Slip

Time-Table HAS CHANGED.
Sep 24 (8:19PM)
Change Departure Station:
Change Arrival Station:
Post a Train Travel TipPost a Train Travel Tip **new
Post a Comment/Question/Picture/VideoPost a Comment/Question/Picture/Video
Pantry/Catering
✓ Pantry Car Avbl
✓ Catering Avbl
PC will available till ED/Erode Juntion
Loco/Rake Reversals
ED/Erode Junction (4);
RSA - Rake Sharing
NO RSA
Rake/Coach Composition
Coach postions:; JAT-ED ==>ENG-SRD-UR-UR-A1-B2-B1-S1-S2-S3-S4-S5-PC-SRD-S6-S7-S8-S9-A2-UR-SLR ; Entry# 962626; Slip coaches from ED to TEN==>; S6-S7-S8-S9-A2-UR-SLR-ENG
Loco
WDM3A-TKD Shed (JAT-NDLS) WAP4-ED Shed (NDLS-ED)
News    PNR    Forum    Time-Table    Availability    Fare Chart    Map    Arr/Dep History    Trips    Gallery    ΣChains    X/O    Timeline    
Travel Time: 4h 33m    9 halts    Distance: 251 km    Avg Speed: 55 km/hr
Type: Mail/Express
Zone: SR/Southern
Departs @ 23:45 (Avg 54m late)
Platform# 2
    T  
Jammu Tawi/JAT 
Arrives @ 04:18 +1 night (Avg 58m late)
Platform# 1
     F 
Phillaur Junction/PHR 

9 halts. 46 intermediate Stations between Jammu Tawi and Phillaur Junction

Show ALL intermediate Stations  Show Old Time-Table

#TrkCodeStation NameX/OArrivesAvgDepartsAvgHaltPFDay#KmSpeedElevZoneAddress
1/--/JATJammu Tawi (3)»  -23:45+54210.065337mNRJammu 180002, Jammu and Kashmir
2/--/SMBXSamba (2)  00:15+1:0700:17+1:072m1232.764365mNRDist. Samba, Jammu and Kashmir
3/--/KTHUKathua (2)  00:58+1:0701:00+1:082m2276.349396mNRdistt. kathua, Jammu and Kashmir
4/--/MDPBMadhopur Punjab (2)  01:10-01:12-2m1284.456357mNRMadhopur, Punjab
5/--/PTKCPathankot Cantt (3)  01:28+1:1301:33+1:135m1299.457328mNRPathankot By Pass Ph:0186-2251594, Punjab
6/--/MEXMukerian (3)  02:15+1:0502:17+1:052m12139.353257mNRMukerian distt. hosiharpur, Punjab
7/--/DZADasuya (2)X  02:34+1:0302:36+1:032m12154.358251mNRDasuya distt. hoshiarpur, Punjab
8/--/TDOTanda Urmar (3)  02:52+1:0202:54+1:012m22169.762239mNRUrmar Tanda, Punjab
9/--/JRCJalandhar Cantt. Junction (3)X  03:35+1:0003:40+1:015m32211.954239mNRNear Rama Mandi, Punjab
10/==/PGWPhagwara Junction (3)  03:58+5704:00+572m12228.275245mNRPhagwara, Punjab
11/==/PHRPhillaur Junction (3)•X  04:18+5804:20+592m12250.820246mNRPhillaur, Punjab
12/==/LDHLudhiana Junction (7)X  05:00+5105:15+4515m52263.963246mNRLudhiana 141001, Punjab
13|--|QRPKila Raipur (1)  05:32+5205:34+562m12281.651262mNRDelhon Pakhowal Rd, Punjab
14|--|AHHAhmadgarh (1)  05:43+5705:45+572m12289.343256mNRAhmedgarh, Punjab
15|--|METMalerkotla (2)  06:13+5106:15+532m--2309.150248mNRMalerkotla., Punjab
16|--|DUIDhuri Junction (4)X  06:35+1:0107:00+4125m--2326.064248mNRDhuri, Punjab
17|--|SAGSangrur (2)X  07:15+4507:17+472m12342.035239mNRSangrur, Punjab
18|--|SFMSunam (1)  07:39+2607:41+262m12354.871235mNRSunam, Punjab
19|--|LHALehra Gaga (1)  07:59+3008:01+302m12376.119227mNRSangrur, Punjab
20|-=|JHLJakhal Junction  08:55+3409:00+395m--2393.067225mNRJakhal, Haryana
21|==|TUNTohana (2)  09:11+4209:13+422m--2405.261232mNRTohana, Haryana
22|==|NRWNarwana Junction (4)X  09:38+4109:40+422m--2430.765235mNRWay to Narwana, Haryana
23|==|UCAUchana  09:54+4309:56+432m--2445.958225mNRDistrict Jind, Haryana
24|==|BZOBarsola  10:06+4310:08+422m--2455.534224mNRDistrict Jind, Haryana
25|==|JINDJind Junction (3)X  10:24+4010:27+413m--2464.673222mNRJind 126102, Haryana
26|==|JNAJulana  10:50 10:48+4610:52 10:50+462m--2490.367226mNRJulana, Haryana
27|==|ROKRohtak Junction (3)  11:45 11:18+4511:47 11:20+452m--2521.773220mNRRohtak, Haryana
28/==/BGZBahadurgarh  12:19 11:53+5512:21 11:55+552m--2562.029220mNRBahadurgarh, Haryana
29/==/SSBShakur Basti  12:56 12:36+4512:58 12:38+452m--2581.913216mNRPitampura, Delhi NCT
30/==/NDLSNew Delhi (16)X13:35 13:30+3514:30 14:15+3355 45m92592.816215mNRNew Delhi, Delhi NCT
31/==/NZMDelhi Hazrat Nizamuddin (7)X  14:45 14:43+4214:55 14:45+5410 2m42600.235209mNRNew Delhi 110013, Delhi NCT
32/==/FDBFaridabad (4)  15:38 15:21+915:40 15:23+92m32620.945206mNRold Faridabad, Haryana
33/==/AGCAgra Cantt. (6)  19:05+219:10+05m12787.890174mNCRAgra, Uttar Pradesh
34/==/DHODholpur Junction (3)  19:45+1819:47+182m32840.462177mNCRDholpur, Rajasthan
35/==/GWLGwalior Junction (4)  20:50+2120:55+215m12905.862214mNCRGwalior, Madhya Pradesh
36/==/JHSJhansi Junction (7)X  22:30+1822:40+2010m--21003.567259mNCRJhansi, Uttar Pradesh
37/==/BPLBhopal Junction (6)  02:55 03:03+603:00 03:05+125 2m131295.339497mWCRBhopal, Madhya Pradesh
38/==/ETItarsi Junction (7)X  05:25-305:30+25m--31387.158329mWCRItarsi 461111, Madhya Pradesh
39/==/NGPNagpur Junction (8)  10:35+110:45+1010m231684.274314mCRNagpur 440001, Maharashtra
40/==/SEGMSewagram Junction (5)  11:47+3211:49+322m--31760.466279mCRWardha, Maharashtra
41/==/CDChandrapur Maharashtra (3)  13:36+2213:38+212m131879.016194mCRChandrapur 442401, Maharashtra
42/==/BPQBalharshah Junction (5)  14:30+314:40+1010m331892.874188mCRBallarpur. Ph : 07172 - 240341, Maharashtra
43/==/RDMRamagundam (3)  16:35+716:37+82m232034.650170mSCRKarimnagar Dist. Ph : 08728 - 255237, Telangana
44/==/WLWarangal (3)X  18:38+4518:43+455m132135.867271mSCRWarangal., Telangana
45/==/KMTKhammam (2)X  20:19+4920:20+561m132243.331118mSCRKhammam 507001, Telangana
46/==/BZAVijayawada Junction (10)X  23:35+3323:45+3310m732343.78224mSCRVijayawada 520001, Andhra Pradesh
47/==/TELTenali Junction (5)X  00:10 00:08+4600:12 00:10+462m242375.06916mSCRTel: 08644-227834, Andhra Pradesh
48/==/OGLOngole (3)  01:45 01:43+4601:47 01:45+462m342482.07712mSCROngole, Andhra Pradesh
49/==/NLRNellore (4)  03:18 03:16-03:20 03:18-2m342598.83321mSCRNellore, Andhra Pradesh
50/==/GDRGudur Junction (3)  04:28+1604:30+152m142637.27119mSCRGudur, Andhra Pradesh
51/==/RURenigunta Junction (5)X  05:40+2405:50+2510m242720.640113mSCRChittoor District, Andhra Pradesh
52/==/TPTYTirupati Main (5)  06:05+3806:10+405m242730.555150mSCRChittoor Distt, Andhra Pradesh
53/--/CTOChittoor (3)  07:28+4607:30+462m--42802.424305mSCR517001., Andhra Pradesh
54/--/KPDKatpadi Junction (5)X  08:55 08:52-108:57+72 5m342835.471213mSRVellore 632007, Tamil Nadu
55/==/JTJJolarpettai Junction (5)X  10:08+710:10+72m--42919.380405mSRJolarpettai, Tamil Nadu
56/==/SASalem Junction (6)  11:40+1711:45+165m--43039.553283mSRSalem, Tamil Nadu
57/==/EDErode Junction (4)↵¶12:55+313:40+545m343100.958175mSRErode ph.no: 0424-2256111, Tamil Nadu
58|--|KRRKarur Junction (5)  14:47-14:50-3m--43165.840121mSRKarur Junction ph.no . 04324-274106, Tamil Nadu
59/=-|TPJTiruchchirappalli Junction (8)  16:45-16:50-5m143242.18185mSRTiruchchirapalli ph.no.0431-2413363, Tamil Nadu
60%==%DGDindigul Junction (6)  18:00-18:05-5m--43336.570287mSRDindigul ph.no.0451-2322045, Tamil Nadu
61/==/KQNKodaikanal Road (4)  18:23 18:24-18:25-2 1m--43358.660242mSRDIndigal Dist, Tamil Nadu
62/==/MDUMadurai Junction (6)  19:05-19:10-5m--43398.874139mSRMadurai 625001, Tamil Nadu
63/--%VPTVirudunagar Junction (4)X  19:45-19:47-2m--43442.039108mSRPh No: 04562-243747, Tamil Nadu
64%--%SRTSatur (2)X  20:29-20:31-2m--43469.34665mSRPh No:04562 - 260243, Tamil Nadu
65%--%CVPKovilpattiX  20:59-21:01-2m--43490.71890mSRKovilpatti, Tamil Nadu
66%--%MEJVanchi Maniyachchi Junction (3)  22:59-23:00-1m--43527.01970mSRThoothukudi, Tamil Nadu
67%--/TENTirunelveli Junction (5)  00:30----53555.3-45mSRTirunelveli-627001, Tamil Nadu
Scroll to Top
Scroll to Bottom